CW9259 Weather Reports


Display with metric or nautical units.
time (UTC)temp
F
wind
direction
speed
MPH
gust
MPH
rain 1hr
in
rain 24hr
in
rain mn
in
humidity
%
barometer
mb
20260502234602 52 323 1.0 3.0 0.00 0.00 0.00 80 1017.9
20260502234503 52 323 1.0 3.0 0.00 0.00 0.00 81 1017.8
20260502233001 53 323 1.0 2.0 0.00 0.00 0.00 80 1018.0
20260502231601 53 324 1.0 2.0 0.00 0.00 0.00 79 1018.1
20260502230004 53 318 0.0 4.0 0.00 0.00 0.00 79 1018.1
20260502224600 53 321 0.0 0.0 0.00 0.00 0.00 79 1018.2
20260502223128 53 329 0.0 0.0 0.00 0.00 0.00 79 1018.2
20260502221605 53 329 0.0 0.0 0.00 0.00 0.00 79 1018.3
20260502221500 53 329 0.0 0.0 0.00 0.00 0.00 79 1018.4
20260502220151 53 326 0.0 0.0 0.00 0.00 0.00 80 1018.4
20260502214554 53 326 0.0 0.0 0.00 0.00 0.00 81 1018.5
20260502213125 53 327 0.0 0.0 0.00 0.00 0.00 80 1018.4
20260502211555 53 326 0.0 0.0 0.00 0.00 0.00 79 1018.4
20260502210132 53 327 0.0 0.0 0.00 0.00 0.00 78 1018.5
20260502204607 54 326 0.0 0.0 0.00 0.00 0.00 77 1018.6
20260502203123 55 326 0.0 0.0 0.00 0.00 0.00 77 1018.7
20260502201556 55 326 0.0 0.0 0.00 0.00 0.00 76 1018.7
20260502200126 55 326 0.0 0.0 0.00 0.00 0.00 75 1018.7
20260502194558 56 327 0.0 0.0 0.00 0.00 0.00 73 1018.6
20260502193137 57 329 0.0 0.0 0.00 0.00 0.00 71 1018.5
20260502191611 58 326 0.0 0.0 0.00 0.00 0.00 70 1018.3
20260502190123 59 325 0.0 0.0 0.00 0.00 0.00 68 1018.2
20260502184556 60 277 0.0 0.0 0.00 0.00 0.00 68 1018.1
20260502183135 61 277 0.0 3.0 0.00 0.00 0.00 67 1017.9
20260502181558 63 355 2.0 3.0 0.00 0.00 0.00 63 1017.9
20260502180126 65 189 0.0 2.0 0.00 0.00 0.00 65 1017.7
20260502170137 70 149 0.0 2.0 0.00 0.00 0.00 51 1017.9
20260502163137 71 134 2.0 6.0 0.00 0.00 0.00 42 1018.2
20260502161558 72 103 2.0 5.0 0.00 0.00 0.00 44 1018.3
20260502160128 72 110 3.0 6.0 0.00 0.00 0.00 42 1018.4
20260502151608 72 162 3.0 9.0 0.00 0.00 0.00 46 1018.7
20260502150139 72 134 3.0 8.0 0.00 0.00 0.00 50 1018.8
20260502130122 70 126 5.0 10.0 0.00 0.00 0.00 52 1020.7
20260502123124 69 36 2.0 9.0 0.00 0.00 0.00 51 1021.0
20260502121601 69 136 3.0 11.0 0.00 0.00 0.00 52 1021.3
20260502120133 69 87 5.0 9.0 0.00 0.00 0.00 51 1021.4
20260502114557 68 28 1.0 11.0 0.00 0.00 0.00 52 1021.8
20260502113121 68 219 3.0 8.0 0.00 0.00 0.00 55 1021.9
20260502111557 67 96 5.0 8.0 0.00 0.00 0.00 52 1022.2
20260502110130 67 118 4.0 8.0 0.00 0.00 0.00 56 1022.4
20260502104557 67 131 4.0 8.0 0.00 0.00 0.00 55 1022.7
20260502103122 67 117 4.0 9.0 0.00 0.00 0.00 56 1022.9
20260502101605 66 143 2.0 5.0 0.00 0.00 0.00 54 1023.2
20260502100125 66 110 5.0 8.0 0.00 0.00 0.00 55 1023.3
20260502090121 62 161 3.0 8.0 0.00 0.00 0.00 62 1023.9
20260502070132 54 48 0.0 0.0 0.00 0.00 0.00 73 1024.4
20260502064558 53 15 0.0 0.0 0.00 0.00 0.00 77 1024.5
20260502063121 51 335 0.0 0.0 0.00 0.00 0.00 79 1024.5
20260502061558 49 335 0.0 0.0 0.00 0.00 0.00 88 1024.4
20260502060128 48 335 0.0 0.0 0.00 0.00 0.00 87 1024.3
20260502054559 46 334 0.0 0.0 0.00 0.00 0.00 92 1024.4
20260502053135 44 328 0.0 0.0 0.00 0.00 0.00 92 1024.3
20260502051602 43 328 0.0 0.0 0.00 0.00 0.00 91 1024.3
20260502050125 43 328 0.0 0.0 0.00 0.00 0.00 91 1024.2
20260502044558 43 328 0.0 0.0 0.00 0.00 0.00 90 1024.1
20260502043134 43 328 0.0 0.0 0.00 0.00 0.00 89 1024.1
20260502041559 43 328 0.0 0.0 0.00 0.00 0.00 90 1024.0
20260502040139 43 327 0.0 0.0 0.00 0.00 0.00 88 1023.9
20260502034557 43 327 0.0 2.0 0.00 0.00 0.00 88 1023.8
20260502033130 44 327 1.0 2.0 0.00 0.00 0.00 88 1023.8
20260502031559 45 327 1.0 2.0 0.00 0.00 0.00 87 1023.9
20260502030130 45 328 1.0 3.0 0.00 0.00 0.00 87 1023.9
20260502024557 45 327 2.0 3.0 0.00 0.00 0.00 87 1023.8
20260502023142 45 333 0.0 2.0 0.00 0.00 0.00 86 1023.9
20260502021556 45 333 2.0 3.0 0.00 0.00 0.00 87 1023.8
20260502020126 45 333 2.0 3.0 0.00 0.00 0.00 88 1023.7
20260502014602 45 333 1.0 3.0 0.00 0.00 0.00 87 1023.8
20260502013136 46 333 1.0 3.0 0.00 0.00 0.00 86 1023.7
20260502011558 45 336 2.0 4.0 0.00 0.00 0.00 87 1023.7
20260502010125 45 316 1.0 4.0 0.00 0.00 0.00 87 1023.8
20260502004605 45 319 1.0 3.0 0.00 0.00 0.00 87 1023.8
20260502003128 45 331 2.0 4.0 0.00 0.00 0.00 88 1023.8
20260502001558 45 323 1.0 3.0 0.00 0.00 0.00 87 1023.8
20260502000134 45 306 1.0 3.0 0.00 0.00 0.00 87 1024.0